Location: Ellerstadt
(49.4644°N, 8.2615°E)
Time: 11:25:11
(UTC+00:00)

Vanguard 2 Rocket - All Passes

Search period start: 13 June 2021 00:00
Search period end: 23 June 2021 00:00
Orbit: 554 x 3325 km, 32.9° (Epoch: 13 June)

Date Brightness Start Highest point End Pass type
(mag) Time Alt. Az. Time Alt. Az. Time Alt. Az.
13 Jun - 00:51:45 10° WSW 00:57:55 19° SSW 01:02:25 10° SSE visible
13 Jun - 19:18:50 10° SSW 19:31:14 24° SSE 19:40:24 10° ESE daylight
13 Jun - 21:32:54 10° SW 21:45:29 32° S 21:53:36 10° ESE visible
13 Jun - 23:49:40 10° WSW 23:58:34 26° SSW 00:04:29 10° SSE visible
14 Jun - 18:18:51 10° S 18:30:34 20° SSE 18:39:53 10° ESE daylight
14 Jun - 20:31:16 10° SW 20:45:08 32° S 20:54:24 10° ESE visible
14 Jun - 22:47:35 10° WSW 22:58:54 31° SSW 23:06:06 10° SE visible
15 Jun - 01:05:45 10° WSW 01:11:00 16° SW 01:15:02 10° S visible
15 Jun - 17:20:07 10° S 17:29:51 16° SE 17:38:17 10° ESE daylight
15 Jun - 19:30:00 10° SW 19:44:31 30° SSE 19:54:49 10° ESE daylight
15 Jun - 21:45:31 10° WSW 21:58:52 35° S 22:07:21 10° ESE visible
16 Jun - 00:03:07 10° WSW 00:11:44 23° SSW 00:17:38 10° SSE visible
16 Jun - 16:24:09 10° SSE 16:29:12 11° SE 16:33:58 10° ESE daylight
16 Jun - 18:29:16 10° SSW 18:43:42 27° SSE 18:54:45 10° ESE daylight
16 Jun - 20:43:32 10° SW 20:58:28 36° S 21:08:17 10° ESE visible
16 Jun - 23:00:44 10° WSW 23:12:08 30° SSW 23:19:29 10° SE visible
17 Jun - 01:20:44 10° WSW 01:23:52 12° SW 01:26:35 10° SSW visible
17 Jun - 17:29:20 10° SSW 17:42:49 23° SSE 17:54:00 10° ESE daylight
17 Jun - 19:41:52 10° SW 19:57:46 36° S 20:08:50 10° ESE daylight
17 Jun - 21:58:24 10° WSW 22:12:09 36° SSW 22:20:55 10° SE visible
18 Jun - 00:16:55 10° WSW 00:24:43 20° SW 00:30:20 10° S visible
18 Jun - 16:30:35 10° S 16:41:58 18° SE 16:52:12 10° ESE daylight
18 Jun - 18:40:39 10° SW 18:56:50 34° SSE 19:08:59 10° ESE daylight
18 Jun - 20:56:10 10° WSW 21:11:45 39° S 21:21:57 10° ESE visible
18 Jun - 23:14:06 10° WSW 23:25:13 27° SSW 23:32:36 10° SSE visible
19 Jun - 15:34:05 10° SSE 15:41:17 13° SE 15:48:12 10° ESE daylight
19 Jun - 17:40:05 10° SSW 17:55:46 30° SSE 18:08:36 10° ESE daylight
19 Jun - 19:54:13 10° SW 20:11:00 40° S 20:22:37 10° ESE visible
19 Jun - 22:11:31 10° WSW 22:25:18 34° SSW 22:34:14 10° SE visible
20 Jun - 00:31:19 10° WSW 00:37:30 15° SW 00:42:19 10° S visible
20 Jun - 16:40:21 10° SSW 16:54:44 25° SSE 17:07:31 10° ESE daylight
20 Jun - 18:52:40 10° SW 19:09:58 39° SSE 19:22:52 10° ESE daylight
20 Jun - 21:09:06 10° WSW 21:24:57 39° S 21:35:25 10° SE visible
20 Jun - 23:27:47 10° W 23:38:07 23° SW 23:45:18 10° SSE visible
21 Jun - 15:41:47 10° S 15:53:50 20° SE 16:05:21 10° ESE daylight
21 Jun - 17:51:41 10° SW 18:08:45 36° SSE 18:22:41 10° ESE daylight
21 Jun - 20:06:55 10° WSW 20:24:11 42° S 20:36:12 10° ESE visible
21 Jun - 22:24:51 10° W 22:38:18 31° SSW 22:47:17 10° SSE visible
22 Jun - 00:47:39 10° WSW 00:50:03 11° SW 00:52:15 10° SW visible
22 Jun - 14:45:18 10° SSE 14:53:12 14° SE 15:01:07 10° ESE daylight
22 Jun - 16:51:24 10° SSW 17:07:31 32° SSE 17:21:55 10° E daylight
22 Jun - 19:05:08 10° WSW 19:23:05 43° S 19:36:33 10° ESE daylight
22 Jun - 21:22:13 10° WSW 21:38:02 38° SSW 21:48:41 10° SE visible
22 Jun - 23:41:57 10° WSW 23:50:46 19° SW 23:57:24 10° S visible
